New Orleans Weather Page

Compiled by Joey Kelly

 

Want a detailed forecast?
Or want to check out the National Hurricane Center?

 

NOAA Weather: Moisant International Airport

Data is taken from the Aviation Weather Service at NOAA.

This is the current weather at New Orleans International Airport
in New Orleans, Louisiana, United States:

Temp: 69.8 F
Wind: 4.6 MPH
Wind direction: South/Southwest at 200°
Dewpoint: 60.8 F
Pressure: 29.93 inches of Mercury
Visibility: 10 Statute Miles
Sky: Sky Clear
Weather:

The raw METAR data is
KMSY 260453Z 20004KT 10SM CLR 21/16 A2993 RMK AO2 SLP136 T02110161


 

New Orleans Metro Radar (Breck)
New Orleans Metro Radar (Breck)

 

Regional Radar (Breck)
Regional Radar (Breck)

 

Gulf Coast Radar
Gulf Coast Radar

 

7-Day Forecast (WWL)
7-Day Forecast (WWL)

 

Southeastern U.S. Temperatures
Southeastern U.S. Temperatures

 

U.S. Surface Map
U.S. Surface Map

 

NHC Caribbean Water Vapor
NHC Caribbean Water Vapor

 

NHC 2-Day Weather Outlook
NHC 2-Day Weather Outlook

 

NHC Atlantic Tropical Cyclone Avtivity
NHC Atlantic Tropical Cyclone Avtivity

 

America and Atlantic Wind Patterns (interactive widget)

 


Other Weather Links:

National Hurricane Center
Storm Tracking (Fox-8/Bob Breck)
Louisiana Hurricane Season Notes

 

 

KellyNet Computer Services